Terug naar catalogus

USA 418

ActiefMilitairVLEO
NORAD 61039·PAYLOAD·🇺🇸 United States

Gelanceerd Sep 6, 2024 vanaf Vandenberg Space Force Base

Loading…

Volgende Passages (komende 24 uur)

TLE

VerouderdSource: Mike McCants

Epoch: Sep 5, 2026, 20:48 UTC

1 61039U 24160U   26248.86725177 0.00000000  00000-0  00000-0 0    00
2 61039  70.0140 154.6169 0004000  79.3701 280.6298 14.96713008    00

Volg USA 418 in realtime met AllMySat

Download on the App Store